FW7564 Weather Reports


Display with metric or nautical units.
time (UTC)temp
F
wind
direction
speed
MPH
gust
MPH
rain 1hr
in
rain 24hr
in
rain mn
in
humidity
%
barometer
mb
20260509022212 50 315 4.0 11.0 0.00 0.00 0.00 10 1021.3
20260509021702 50 270 3.0 7.0 0.00 0.00 0.00 10 1021.2
20260509020641 50 315 4.0 14.0 0.00 0.00 0.00 10 1020.9
20260509020131 50 225 2.0 14.0 0.00 0.00 0.00 10 1021.2
20260509015622 50 248 4.0 14.0 0.00 0.00 0.00 10 1021.0
20260509015111 49 203 4.0 18.0 0.00 0.00 0.00 10 1020.7
20260509014604 49 203 9.0 31.0 0.00 0.00 0.00 10 1020.7
20260509014051 50 248 15.0 31.0 0.00 0.00 0.00 10 1020.3
20260509013541 49 180 8.0 21.0 0.00 0.00 0.00 10 1020.3
20260509012011 48 158 10.0 27.0 0.00 0.00 0.00 10 1019.6
20260509011457 48 180 14.0 27.0 0.00 0.00 0.00 10 1019.6
20260509010947 48 225 11.0 25.0 0.00 0.00 0.00 10 1019.4
20260509010437 47 135 14.0 25.0 0.00 0.00 0.00 10 1019.4
20260509005930 47 203 10.0 23.0 0.00 0.00 0.00 10 1019.0
20260509005419 47 203 11.0 36.0 0.00 0.00 0.00 10 1019.1
20260509004910 47 203 11.0 36.0 0.00 0.00 0.00 10 1019.1
20260509004400 47 180 8.0 30.0 0.00 0.00 0.00 10 1018.7
20260509003849 47 158 10.0 30.0 0.00 0.00 0.00 10 1018.5
20260509003339 47 270 7.0 23.0 0.00 0.00 0.00 10 1018.4
20260509002320 48 180 13.0 24.0 0.00 0.00 0.00 10 1018.5
20260509001809 47 203 12.0 31.0 0.00 0.00 0.00 10 1018.3
20260509001259 48 180 7.0 31.0 0.00 0.00 0.00 10 1018.0
20260509000749 49 180 15.0 27.0 0.00 0.00 0.00 10 1018.0
20260508235730 51 180 13.0 24.0 0.00 0.00 0.00 10 1017.5
20260508235218 52 203 6.0 24.0 0.00 0.00 0.00 10 1017.5
20260508234708 53 113 8.0 17.0 0.00 0.00 0.00 10 1017.2
20260508234159 53 203 4.0 8.0 0.00 0.00 0.00 10 1016.9
20260508233648 53 225 2.0 7.0 0.00 0.00 0.00 10 1016.7
20260508233138 54 248 2.0 7.0 0.00 0.00 0.00 10 1016.6
20260508232627 54 248 2.0 11.0 0.00 0.00 0.00 10 1016.3
20260508232118 54 203 2.0 11.0 0.00 0.00 0.00 10 1016.3
20260508231608 54 158 4.0 9.0 0.00 0.00 0.00 10 1016.2
20260508231058 54 203 5.0 9.0 0.00 0.00 0.00 10 1016.2
20260508230547 54 135 3.0 8.0 0.00 0.00 0.00 10 1015.9
20260508230037 55 180 2.0 8.0 0.00 0.00 0.00 10 1016.1
20260508225018 55 135 2.0 8.0 0.00 0.00 0.00 10 1015.4
20260508224507 55 113 4.0 11.0 0.00 0.00 0.00 10 1015.1
20260508223957 55 135 4.0 11.0 0.00 0.00 0.00 10 1014.9
20260508222937 56 90 2.0 11.0 0.00 0.00 0.00 10 1014.8
20260508222427 57 113 4.0 11.0 0.00 0.00 0.00 10 1014.5
20260508221917 57 113 3.0 9.0 0.00 0.00 0.00 10 1014.0
20260508220856 57 90 3.0 9.0 0.00 0.00 0.00 10 1013.9
20260508220346 57 90 4.0 11.0 0.00 0.00 0.00 10 1013.5
20260508215836 58 113 5.0 11.0 0.00 0.00 0.00 10 1013.6
20260508215329 58 68 4.0 8.0 0.00 0.00 0.00 10 1013.4
20260508214817 58 90 3.0 11.0 0.00 0.00 0.00 10 1013.2
20260508214306 58 90 4.0 11.0 0.00 0.00 0.00 10 1013.0
20260508213756 59 68 5.0 11.0 0.00 0.00 0.00 10 1013.0
20260508213246 59 68 5.0 9.0 0.00 0.00 0.00 10 1012.9
20260508212735 59 90 4.0 8.0 0.00 0.00 0.00 10 1013.0
20260508212225 59 68 3.0 8.0 0.00 0.00 0.00 10 1012.7
20260508211716 60 68 3.0 8.0 0.00 0.00 0.00 10 1012.8
20260508211206 60 90 3.0 8.0 0.00 0.00 0.00 10 1012.6
20260508210655 60 68 5.0 7.0 0.00 0.00 0.00 10 1012.7
20260508210146 61 68 4.0 6.0 0.00 0.00 0.00 10 1012.7
20260508205636 61 113 4.0 7.0 0.00 0.00 0.00 10 1012.5
20260508205124 61 68 3.0 7.0 0.00 0.00 0.00 10 1012.7
20260508204614 62 68 3.0 7.0 0.00 0.00 0.00 10 1012.8
20260508204105 62 68 3.0 6.0 0.00 0.00 0.00 10 1012.7
20260508203555 62 68 2.0 6.0 0.00 0.00 0.00 10 1012.8
20260508203045 62 68 2.0 6.0 0.00 0.00 0.00 10 1012.8
20260508202533 62 23 2.0 7.0 0.00 0.00 0.00 10 1012.5
20260508202024 62 68 3.0 7.0 0.00 0.00 0.00 10 1012.7
20260508201515 62 68 3.0 7.0 0.00 0.00 0.00 10 1012.7
20260508201003 62 90 2.0 7.0 0.00 0.00 0.00 10 1012.8
20260508200458 63 90 2.0 4.0 0.00 0.00 0.00 10 1012.9
20260508195943 64 113 0.0 4.0 0.00 0.00 0.00 10 1012.8
20260508195433 64 203 2.0 4.0 0.00 0.00 0.00 10 1012.8
20260508194923 63 180 1.0 4.0 0.00 0.00 0.00 10 1013.0
20260508193903 64 90 2.0 2.0 0.00 0.00 0.00 10 1012.8
20260508193352 64 135 2.0 2.0 0.00 0.00 0.00 10 1012.8
20260508192842 64 135 2.0 2.0 0.00 0.00 0.00 10 1012.9
20260508192333 64 113 1.0 4.0 0.00 0.00 0.00 10 1012.6
20260508191823 63 113 2.0 4.0 0.00 0.00 0.00 10 1013.0
20260508191312 63 135 2.0 4.0 0.00 0.00 0.00 10 1013.0
20260508190802 63 113 3.0 4.0 0.00 0.00 0.00 10 1013.0
20260508190252 63 113 2.0 4.0 0.00 0.00 0.00 10 1013.1
20260508185742 63 113 3.0 4.0 0.00 0.00 0.00 10 1013.0
20260508185232 63 113 3.0 4.0 0.00 0.00 0.00 10 1013.1
20260508184722 63 113 3.0 4.0 0.00 0.00 0.00 10 1013.2
20260508184212 63 90 2.0 6.0 0.00 0.00 0.00 10 1013.0
20260508183151 62 113 2.0 4.0 0.00 0.00 0.00 10 1013.2
20260508182131 62 113 2.0 4.0 0.00 0.00 0.00 10 1013.1
20260508181114 63 135 1.0 4.0 0.00 0.00 0.00 10 1013.2
20260508180601 64 203 0.0 6.0 0.00 0.00 0.00 10 1013.6
20260508180050 62 90 2.0 11.0 0.00 0.00 0.00 10 1013.5
20260508175541 62 23 4.0 11.0 0.00 0.00 0.00 10 1013.5
20260508175030 61 90 4.0 8.0 0.00 0.00 0.00 10 1013.9
20260508174521 63 90 3.0 7.0 0.00 0.00 0.00 10 1013.9
20260508174010 63 158 2.0 4.0 0.00 0.00 0.00 10 1014.0
20260508173501 62 113 2.0 4.0 0.00 0.00 0.00 10 1014.1
20260508172951 62 90 2.0 4.0 0.00 0.00 0.00 10 1014.0
20260508172440 63 68 2.0 4.0 0.00 0.00 0.00 10 1014.3
20260508171930 63 135 2.0 4.0 0.00 0.00 0.00 10 1014.5
20260508170910 63 203 2.0 4.0 0.00 0.00 0.00 10 1014.6
20260508170400 64 203 1.0 6.0 0.00 0.00 0.00 10 1014.7
20260508165849 63 180 2.0 7.0 0.00 0.00 0.00 10 1014.8
20260508165340 62 225 4.0 9.0 0.00 0.00 0.00 10 1015.0
20260508164830 62 158 4.0 9.0 0.00 0.00 0.00 10 1015.0
20260508164319 62 158 5.0 9.0 0.00 0.00 0.00 10 1015.1
20260508163259 61 203 5.0 9.0 0.00 0.00 0.00 10 1015.3
20260508162749 62 203 4.0 13.0 0.00 0.00 0.00 10 1015.2
20260508162238 61 113 3.0 13.0 0.00 0.00 0.00 10 1015.4
20260508161729 61 158 4.0 13.0 0.00 0.00 0.00 10 1015.4
20260508161218 61 180 5.0 13.0 0.00 0.00 0.00 10 1015.5
20260508160708 61 180 3.0 11.0 0.00 0.00 0.00 10 1015.7
20260508160158 60 180 5.0 11.0 0.00 0.00 0.00 10 1015.7
20260508155648 61 113 4.0 9.0 0.00 0.00 0.00 10 1016.1
20260508155138 60 203 3.0 14.0 0.00 0.00 0.00 10 1016.2
20260508154628 60 180 8.0 15.0 0.00 0.00 0.00 10 1016.1
20260508154119 60 225 7.0 17.0 0.00 0.00 0.00 10 1016.2
20260508153608 59 180 11.0 17.0 0.00 0.00 0.00 10 1016.3
20260508153058 59 180 5.0 15.0 0.00 0.00 0.00 10 1016.4
20260508152548 58 203 8.0 17.0 0.00 0.00 0.00 10 1016.4
20260508152038 58 158 9.0 17.0 0.00 0.00 0.00 10 1016.3
20260508151527 58 158 8.0 17.0 0.00 0.00 0.00 10 1016.6
20260508151017 59 203 6.0 17.0 0.00 0.00 0.00 10 1016.5
20260508145957 58 225 7.0 18.0 0.00 0.00 0.00 10 1016.7
20260508145446 58 203 8.0 20.0 0.00 0.00 0.00 10 1016.6
20260508144937 58 158 7.0 20.0 0.00 0.00 0.00 10 1016.8
20260508144427 58 203 4.0 14.0 0.00 0.00 0.00 10 1016.7
20260508143406 58 135 8.0 16.0 0.00 0.00 0.00 10 1016.9
20260508141326 58 203 8.0 16.0 0.00 0.00 0.00 10 1017.0
20260508140816 57 203 4.0 16.0 0.00 0.00 0.00 10 1017.0
20260508140306 58 203 7.0 15.0 0.00 0.00 0.00 10 1017.1
20260508135756 58 225 5.0 17.0 0.00 0.00 0.00 10 1017.0
20260508134735 57 158 7.0 16.0 0.00 0.00 0.00 10 1017.1
20260508134225 57 180 5.0 16.0 0.00 0.00 0.00 10 1017.1
20260508133716 57 225 4.0 16.0 0.00 0.00 0.00 10 1017.4
20260508133205 57 158 5.0 16.0 0.00 0.00 0.00 10 1017.0
20260508131634 55 158 4.0 11.0 0.00 0.00 0.00 10 1017.1
20260508131125 55 90 4.0 8.0 0.00 0.00 0.00 10 1017.1
20260508130615 55 180 3.0 9.0 0.00 0.00 0.00 10 1017.2
20260508130104 54 113 3.0 9.0 0.00 0.00 0.00 10 1016.9
20260508125554 54 135 2.0 9.0 0.00 0.00 0.00 10 1017.1
20260508125045 53 180 2.0 9.0 0.00 0.00 0.00 10 1017.0
20260508124533 53 135 4.0 8.0 0.00 0.00 0.00 10 1017.1
20260508124024 53 203 2.0 8.0 0.00 0.00 0.00 10 1017.2
20260508123004 52 180 3.0 7.0 0.00 0.00 0.00 10 1017.6
20260508122454 52 158 2.0 7.0 0.00 0.00 0.00 10 1017.4
20260508121943 52 135 2.0 7.0 0.00 0.00 0.00 10 1017.4
20260508121435 51 158 2.0 7.0 0.00 0.00 0.00 10 1017.5
20260508120413 50 180 2.0 7.0 0.00 0.00 0.00 10 1017.6
20260508115903 50 135 1.0 7.0 0.00 0.00 0.00 10 1017.3
20260508115353 50 203 2.0 7.0 0.00 0.00 0.00 10 1017.2
20260508114843 49 180 2.0 8.0 0.00 0.00 0.00 10 1017.5
20260508113822 49 203 4.0 8.0 0.00 0.00 0.00 10 1017.2
20260508113313 49 203 5.0 8.0 0.00 0.00 0.00 10 1017.2
20260508112802 49 113 1.0 6.0 0.00 0.00 0.00 10 1017.1
20260508111742 48 203 2.0 4.0 0.00 0.00 0.00 10 1016.9
20260508111232 47 225 2.0 4.0 0.00 0.00 0.00 10 1016.8
20260508110722 47 180 1.0 8.0 0.00 0.00 0.00 10 1017.1
20260508105702 47 135 4.0 8.0 0.00 0.00 0.00 10 1016.9
20260508105151 47 180 4.0 11.0 0.00 0.00 0.00 10 1016.7
20260508104644 47 203 2.0 11.0 0.00 0.00 0.00 10 1017.0
20260508104131 47 203 4.0 11.0 0.00 0.00 0.00 10 1016.8
20260508103622 47 158 4.0 15.0 0.00 0.00 0.00 10 1017.0
20260508103111 48 248 6.0 15.0 0.00 0.00 0.00 10 1016.6
20260508102601 47 180 5.0 14.0 0.00 0.00 0.00 10 1016.6
20260508102051 47 203 4.0 13.0 0.00 0.00 0.00 10 1016.5
20260508101541 47 180 4.0 11.0 0.00 0.00 0.00 10 1016.7
20260508101031 47 203 3.0 11.0 0.00 0.00 0.00 10 1016.4
20260508100520 47 203 3.0 14.0 0.00 0.00 0.00 10 1016.4
20260508100010 47 203 4.0 15.0 0.00 0.00 0.00 10 1016.3
20260508095500 48 225 5.0 15.0 0.00 0.00 0.00 10 1016.2
20260508094950 48 248 5.0 16.0 0.00 0.00 0.00 10 1016.3
20260508094437 48 180 8.0 16.0 0.00 0.00 0.00 10 1016.1
20260508093930 48 158 7.0 15.0 0.00 0.00 0.00 10 1016.1
20260508093420 48 248 6.0 14.0 0.00 0.00 0.00 10 1016.3
20260508092910 48 225 5.0 11.0 0.00 0.00 0.00 10 1016.4
20260508092401 47 180 5.0 11.0 0.00 0.00 0.00 10 1016.2
20260508091849 47 203 4.0 11.0 0.00 0.00 0.00 10 1016.2
20260508091339 48 225 5.0 13.0 0.00 0.00 0.00 10 1016.3
20260508090829 47 180 4.0 14.0 0.00 0.00 0.00 10 1016.2
20260508090319 47 203 2.0 14.0 0.00 0.00 0.00 10 1016.5
20260508085809 48 225 7.0 13.0 0.00 0.00 0.00 10 1016.4
20260508083729 48 158 4.0 9.0 0.00 0.00 0.00 10 1016.5
20260508083219 48 203 2.0 11.0 0.00 0.00 0.00 10 1016.0
20260508082708 48 180 6.0 11.0 0.00 0.00 0.00 10 1016.4
20260508081648 49 203 3.0 15.0 0.00 0.00 0.00 10 1016.3
20260508081137 49 113 4.0 15.0 0.00 0.00 0.00 10 1016.1
20260508080627 49 203 2.0 15.0 0.00 0.00 0.00 10 1016.3
20260508080118 49 203 8.0 15.0 0.00 0.00 0.00 10 1016.1
20260508075608 49 225 9.0 22.0 0.00 0.00 0.00 10 1016.3
20260508075058 49 225 6.0 22.0 0.00 0.00 0.00 10 1016.2
20260508074548 49 248 8.0 16.0 0.00 0.00 0.00 10 1016.4
20260508073523 49 158 4.0 17.0 0.00 0.00 0.00 10 1016.3
20260508073014 49 225 3.0 14.0 0.00 0.00 0.00 10 1016.4
20260508071956 49 225 4.0 17.0 0.00 0.00 0.00 10 1016.6
20260508070425 49 225 4.0 0.0 0.00 0.00 0.00 10 1016.4
20260508070224 49 270 6.0 0.0 0.00 0.00 0.00 10 1016.5
20260508065535 50 180 4.0 14.0 0.00 0.00 0.00 10 1016.4
20260508065025 50 203 4.0 16.0 0.00 0.00 0.00 10 1016.6
20260508064516 50 225 4.0 17.0 0.00 0.00 0.00 10 1016.5
20260508064005 50 203 10.0 21.0 0.00 0.00 0.00 10 1016.5
20260508062945 50 203 5.0 14.0 0.00 0.00 0.00 10 1016.8
20260508062435 50 225 2.0 15.0 0.00 0.00 0.00 10 1016.7
20260508061925 50 248 4.0 15.0 0.00 0.00 0.00 10 1016.5
20260508061415 50 203 5.0 14.0 0.00 0.00 0.00 10 1016.7
20260508060904 50 180 4.0 18.0 0.00 0.00 0.00 10 1017.0
20260508060354 50 180 3.0 18.0 0.00 0.00 0.00 10 1016.9
20260508055844 50 203 5.0 16.0 0.00 0.00 0.00 10 1016.9
20260508055335 50 225 4.0 16.0 0.00 0.00 0.00 10 1016.8
20260508054824 50 203 8.0 17.0 0.00 0.00 0.00 10 1016.3
20260508054314 50 158 8.0 17.0 0.00 0.00 0.00 10 1016.5
20260508053804 50 203 8.0 15.0 0.00 0.00 0.00 10 1016.8
20260508053254 50 203 7.0 20.0 0.00 0.00 0.00 10 1016.8
20260508052744 51 158 6.0 20.0 0.00 0.00 0.00 10 1016.6
20260508052230 50 158 4.0 11.0 0.00 0.00 0.00 10 1016.9
20260508051724 50 158 6.0 11.0 0.00 0.00 0.00 10 1016.8
20260508051210 50 248 7.0 11.0 0.00 0.00 0.00 10 1016.9
20260508050700 50 158 2.0 11.0 0.00 0.00 0.00 10 1017.2
20260508050150 50 293 4.0 11.0 0.00 0.00 0.00 10 1016.9
20260508045640 50 270 6.0 11.0 0.00 0.00 0.00 10 1017.0
20260508044620 50 203 3.0 11.0 0.00 0.00 0.00 10 1017.1
20260508044110 51 180 4.0 13.0 0.00 0.00 0.00 10 1016.8
20260508043559 51 158 4.0 16.0 0.00 0.00 0.00 10 1016.6
20260508043049 51 158 5.0 16.0 0.00 0.00 0.00 10 1016.6
20260508042539 52 135 5.0 11.0 0.00 0.00 0.00 10 1016.6
20260508041532 53 180 6.0 15.0 0.00 0.00 0.00 10 1016.6
20260508041012 53 135 4.0 16.0 0.00 0.00 0.00 10 1016.6
20260508040502 53 203 5.0 16.0 0.00 0.00 0.00 10 1016.4
20260508035951 53 203 8.0 16.0 0.00 0.00 0.00 10 1016.5
20260508035442 53 135 7.0 14.0 0.00 0.00 0.00 10 1016.5
20260508034932 53 158 8.0 13.0 0.00 0.00 0.00 10 1016.4
20260508034421 52 180 4.0 15.0 0.00 0.00 0.00 10 1016.1
20260508033911 52 180 6.0 15.0 0.00 0.00 0.00 10 1016.2
20260508033401 51 158 8.0 11.0 0.00 0.00 0.00 10 1016.3
20260508031831 48 225 1.0 11.0 0.00 0.00 0.00 10 1016.0
20260508031320 49 248 2.0 11.0 0.00 0.00 0.00 10 1015.9
20260508030811 47 180 0.0 7.0 0.00 0.00 0.00 10 1016.2
20260508025239 44 270 0.0 2.0 0.00 0.00 0.01 10 1016.2
20260508024730 45 293 1.0 2.0 0.00 0.00 0.01 10 1015.9
20260508024220 46 293 1.0 2.0 0.00 0.00 0.01 10 1015.6
20260508023710 45 270 0.0 2.0 0.00 0.00 0.01 10 1015.5
20260508023200 45 270 0.0 2.0 0.00 0.00 0.01 10 1015.5